{"data":{"norad_id":60094,"epoch":"2026-05-24T23:17:21.736608Z","epoch_age_seconds":87865,"freshness":"FRESH","line1":"1 60094U 24117D   26144.97039047 -.00000618  00000+0 -87520-5 0  9993","line2":"2 60094  53.1624  42.9323 0001296  91.9611 268.1538 15.30190607108565","mean_motion":15.30190607,"eccentricity":0.0001296,"inclination_deg":53.1624,"raan_deg":42.9323,"arg_perigee_deg":91.9611,"mean_anomaly_deg":268.1538,"bstar":-8.752e-6,"rev_number":10856,"period_min":94.105923367493,"perigee_km":474.35491730474,"apogee_km":476.13131343064,"semimajor_km":6853.3801153677,"source":"CELESTRAK","updated_at":"2026-05-25T13:38:19.160207Z"}}